Regional Weather Roundup
Issued by NWS

Home | Current Version | Previous Version | Graphics & Text | Print | Product List | Glossary On
Versions: 1 2 3 4 5 6 7 8 9 10 11 12 13 14 15 16 17 18 19 20 21 22 23 24 25 26 27 28 29 30 31 32 33 34 35 36 37 38 39 40 41 42 43 44 45 46 47 48 49 50
000
ASUS45 KABQ 230801
RWRNM
NEW MEXICO REGIONAL WEATHER ROUNDUP
NATIONAL WEATHER SERVICE ALBUQUERQUE NM
200 AM MDT SUN JUL 23 2017

NOTE: "FAIR" MEANS FEW OR NO CLOUDS BELOW 12,000 FEET AGL WITH NO
       SIGNIFICANT WEATHER OR OBSTRUCTIONS TO VISION.

      THIS PRODUCT IS RELEASED AS TWO VERSIONS.  ONE VERSION NEAR
      THE TOP OF THE HOUR CONTAINING PRELIMINARY DATA FROM ALBUQUERQUE
      AND OTHER STATIONS.  A FINAL VERSION WITH ADDITIONAL DATA IS
      ISSUED ABOUT 10 MINUTES AFTER THE HOUR.

NMZ501-503-504-510>518-230900-
NORTHWEST PLATEAU/NORTHCENTRAL MOUNTAINS

CITY           SKY/WX    TMP DP  RH WIND       PRES   REMARKS
FARMINGTON     FAIR      68  55  63 E7        30.18S
LOS ALAMOS     FAIR      64  49  56 N6        30.35F
SANTA FE       MOCLDY    66  56  70 S8        30.29F
TAOS           FAIR      61  46  59 N8        30.35F
ANGEL FIRE     FAIR      53  51  93 CALM      30.45S

$$
NMZ402-403-502-505>509-230900-
WESTCENTRAL MOUNTAINS/SOUTHWEST MOUNTAINS

CITY           SKY/WX    TMP DP  RH WIND       PRES   REMARKS
GALLUP         FAIR      60  52  74 NE5       30.26S
GRANTS         FAIR      66  52  59 S10       30.28F
SILVER CITY    FAIR      66  63  90 CALM      30.16S

$$
NMZ407-409-411-412-230900-
SOUTHERN DESERTS

CITY           SKY/WX    TMP DP  RH WIND       PRES   REMARKS
DEMING         FAIR      68  67  96 E3        30.09F
LAS CRUCES     FAIR      68  64  87 CALM      30.11F
HOLLOMAN AFB   MOCLDY    73  60  63 CALM      30.11R
ALAMOGORDO     FAIR      72  63  73 CALM      30.10F
T OR C         FAIR      69  59  70 N8        30.14F

$$
NMZ519>523-230900-
CENTRAL VALLEYS/CENTRAL HIGHLANDS

CITY           SKY/WX    TMP DP  RH WIND       PRES   REMARKS
ALBUQUERQUE    CLOUDY    70  56  61 E3        30.21F
DOUBLE EAGLE   FAIR      67  58  71 S8        30.25F
MORIARTY ARPT  FAIR      59  56  91 NE6       30.29S
CLINES CORNERS FAIR      57  52  83 N7        30.34S
BELEN          NOT AVBL
SOCORRO        FAIR      68  62  82 W7        30.16F

$$
NMZ524>526-539-540-230900-
SOUTHCENTRAL MOUNTAINS

CITY           SKY/WX    TMP DP  RH WIND       PRES   REMARKS
RUIDOSO        FAIR      64  57  77 N6        30.30R

$$
NMZ527>531-230900-
NORTHEAST HIGHLANDS/NORTHEAST PLAINS

CITY           SKY/WX    TMP DP  RH WIND       PRES   REMARKS
LAS VEGAS      CLOUDY    62  49  62 CALM      30.34S
RATON          MOCLDY    62  55  77 CALM      30.30S
CLAYTON        FAIR      69  57  65 NW8       30.17S

$$
NMZ532>537-230900-
EASTCENTRAL PLAINS

CITY           SKY/WX    TMP DP  RH WIND       PRES   REMARKS
SANTA ROSA     FAIR      66  60  81 W7        30.17S
TUCUMCARI      FAIR      70  65  84 NW10      30.08F
CANNON AFB     MOCLDY    69  65  89 NE5       30.12F
CLOVIS AIRPORT CLOUDY    69  61  75 W8        30.11F

$$
NMZ028-029-538-230900-
SOUTHEAST PLAINS

CITY           SKY/WX    TMP DP  RH WIND       PRES   REMARKS
ROSWELL        FAIR      75  62  64 S8        30.06F
ARTESIA        FAIR      73  64  73 SE7       30.04F
CARLSBAD       FAIR      74  67  78 SE7       30.01F
HOBBS          LGT RAIN  72  66  83 E5        30.09F


$$




USA.gov is the U.S. government's official web portal to all federal, state and local government web resources and services.